Wetterdaten: Mittwoch, 11.04.2007
Datum Zeit Temp. A. Feuchte A. Luftdruck Regen Wind Richtung Richtung Sonnenschein UV Solar Windben
11.04.2007 00:00 11,2 C 74 % 1022,8 hPa 0,0 mm 0,0 km/h (0 Bft) N 0 0 min 0 UV-I 0 W/m 0,0 km/h (0 Bft)
11.04.2007 00:10 11,2 C 74 % 1022,9 hPa 0,0 mm 0,0 km/h (0 Bft) W 270 0 min 0 UV-I 0 W/m 1,6 km/h (1 Bft)
11.04.2007 00:20 11,1 C 74 % 1022,9 hPa 0,0 mm 0,0 km/h (0 Bft) W 270 0 min 0 UV-I 0 W/m 3,2 km/h (1 Bft)
11.04.2007 00:30 11,0 C 74 % 1023,0 hPa 0,0 mm 0,0 km/h (0 Bft) W 270 0 min 0 UV-I 0 W/m 1,6 km/h (1 Bft)
11.04.2007 00:40 10,8 C 75 % 1023,0 hPa 0,0 mm 0,0 km/h (0 Bft) W 270 0 min 0 UV-I 0 W/m 1,6 km/h (1 Bft)
11.04.2007 00:50 10,6 C 76 % 1023,1 hPa 0,0 mm 0,0 km/h (0 Bft) W 270 0 min 0 UV-I 0 W/m 1,6 km/h (1 Bft)
11.04.2007 01:00 10,5 C 76 % 1023,0 hPa 0,0 mm 0,0 km/h (0 Bft) N 0 0 min 0 UV-I 0 W/m 0,0 km/h (0 Bft)
11.04.2007 01:10 10,6 C 76 % 1023,1 hPa 0,0 mm 0,0 km/h (0 Bft) W 270 0 min 0 UV-I 0 W/m 1,6 km/h (1 Bft)
11.04.2007 01:20 10,7 C 75 % 1023,1 hPa 0,0 mm 0,0 km/h (0 Bft) W 270 0 min 0 UV-I 0 W/m 1,6 km/h (1 Bft)
11.04.2007 01:30 10,7 C 75 % 1023,1 hPa 0,0 mm 0,0 km/h (0 Bft) W 270 0 min 0 UV-I 0 W/m 3,2 km/h (1 Bft)
11.04.2007 01:40 10,8 C 75 % 1023,2 hPa 0,0 mm 0,0 km/h (0 Bft) W 270 0 min 0 UV-I 0 W/m 1,6 km/h (1 Bft)
11.04.2007 01:50 10,8 C 75 % 1023,3 hPa 0,0 mm 0,0 km/h (0 Bft) W 270 0 min 0 UV-I 0 W/m 3,2 km/h (1 Bft)
11.04.2007 02:00 10,8 C 75 % 1023,3 hPa 0,0 mm 0,0 km/h (0 Bft) W 270 0 min 0 UV-I 0 W/m 1,6 km/h (1 Bft)
11.04.2007 02:10 10,9 C 75 % 1023,3 hPa 0,0 mm 1,6 km/h (1 Bft) W-SW 247 0 min 0 UV-I 0 W/m 4,8 km/h (1 Bft)
11.04.2007 02:20 10,9 C 75 % 1023,4 hPa 0,0 mm 0,0 km/h (0 Bft) W 270 0 min 0 UV-I 0 W/m 6,4 km/h (2 Bft)
11.04.2007 02:30 10,8 C 75 % 1023,4 hPa 0,0 mm 0,0 km/h (0 Bft) N-NW 337 0 min 0 UV-I 0 W/m 3,2 km/h (1 Bft)
11.04.2007 02:40 10,8 C 75 % 1023,4 hPa 0,0 mm 0,0 km/h (0 Bft) N-NW 337 0 min 0 UV-I 0 W/m 1,6 km/h (1 Bft)
11.04.2007 02:50 10,7 C 75 % 1023,4 hPa 0,0 mm 0,0 km/h (0 Bft) N-NW 337 0 min 0 UV-I 0 W/m 1,6 km/h (1 Bft)
11.04.2007 03:00 10,7 C 76 % 1023,5 hPa 0,0 mm 0,0 km/h (0 Bft) N-NW 337 0 min 0 UV-I 0 W/m 1,6 km/h (1 Bft)
11.04.2007 03:10 10,7 C 76 % 1023,5 hPa 0,0 mm 0,0 km/h (0 Bft) N-NW 337 0 min 0 UV-I 0 W/m 1,6 km/h (1 Bft)
11.04.2007 03:20 10,6 C 77 % 1023,5 hPa 0,0 mm 0,0 km/h (0 Bft) N-NW 337 0 min 0 UV-I 0 W/m 1,6 km/h (1 Bft)
11.04.2007 03:30 10,6 C 77 % 1023,4 hPa 0,0 mm 0,0 km/h (0 Bft) N 0 0 min 0 UV-I 0 W/m 0,0 km/h (0 Bft)
11.04.2007 03:40 10,5 C 78 % 1023,5 hPa 0,0 mm 0,0 km/h (0 Bft) N 0 0 min 0 UV-I 0 W/m 0,0 km/h (0 Bft)
11.04.2007 03:50 10,4 C 78 % 1023,4 hPa 0,0 mm 0,0 km/h (0 Bft) N 0 0 min 0 UV-I 0 W/m 0,0 km/h (0 Bft)
11.04.2007 04:00 10,4 C 78 % 1023,4 hPa 0,0 mm 0,0 km/h (0 Bft) N-NW 337 0 min 0 UV-I 0 W/m 1,6 km/h (1 Bft)
11.04.2007 04:10 10,3 C 78 % 1023,4 hPa 0,0 mm 0,0 km/h (0 Bft) N-NW 337 0 min 0 UV-I 0 W/m 1,6 km/h (1 Bft)
11.04.2007 04:20 10,3 C 78 % 1023,3 hPa 0,0 mm 0,0 km/h (0 Bft) N 0 0 min 0 UV-I 0 W/m 0,0 km/h (0 Bft)
11.04.2007 04:30 10,3 C 79 % 1023,4 hPa 0,0 mm 0,0 km/h (0 Bft) N-NW 337 0 min 0 UV-I 0 W/m 3,2 km/h (1 Bft)
11.04.2007 04:40 10,3 C 79 % 1023,4 hPa 0,0 mm 0,0 km/h (0 Bft) NW 315 0 min 0 UV-I 0 W/m 1,6 km/h (1 Bft)
11.04.2007 04:50 10,2 C 79 % 1023,4 hPa 0,0 mm 0,0 km/h (0 Bft) NW 315 0 min 0 UV-I 0 W/m 3,2 km/h (1 Bft)
11.04.2007 05:00 10,2 C 79 % 1023,5 hPa 0,0 mm 0,0 km/h (0 Bft) SW 225 0 min 0 UV-I 0 W/m 3,2 km/h (1 Bft)
11.04.2007 05:10 10,3 C 79 % 1023,5 hPa 0,0 mm 0,0 km/h (0 Bft) SW 225 0 min 0 UV-I 0 W/m 1,6 km/h (1 Bft)
11.04.2007 05:20 10,2 C 80 % 1023,4 hPa 0,0 mm 0,0 km/h (0 Bft) SW 225 0 min 0 UV-I 0 W/m 3,2 km/h (1 Bft)
11.04.2007 05:30 10,1 C 80 % 1023,4 hPa 0,0 mm 0,0 km/h (0 Bft) SW 225 0 min 0 UV-I 0 W/m 1,6 km/h (1 Bft)
11.04.2007 05:40 10,1 C 81 % 1023,4 hPa 0,0 mm 0,0 km/h (0 Bft) S-SW 202 0 min 0 UV-I 0 W/m 3,2 km/h (1 Bft)
11.04.2007 05:50 10,0 C 81 % 1023,4 hPa 0,0 mm 0,0 km/h (0 Bft) S-SW 202 0 min 0 UV-I 0 W/m 3,2 km/h (1 Bft)
11.04.2007 06:00 10,0 C 80 % 1023,3 hPa 0,0 mm 0,0 km/h (0 Bft) S-SW 202 0 min 0 UV-I 0 W/m 3,2 km/h (1 Bft)
11.04.2007 06:10 9,9 C 80 % 1023,3 hPa 0,0 mm 0,0 km/h (0 Bft) SW 225 0 min 0 UV-I 0 W/m 3,2 km/h (1 Bft)
11.04.2007 06:20 10,0 C 80 % 1023,3 hPa 0,0 mm 0,0 km/h (0 Bft) W-SW 247 0 min 0 UV-I 0 W/m 4,8 km/h (1 Bft)
11.04.2007 06:30 9,9 C 80 % 1023,4 hPa 0,0 mm 0,0 km/h (0 Bft) W-SW 247 0 min 0 UV-I 0 W/m 1,6 km/h (1 Bft)
11.04.2007 06:40 9,9 C 80 % 1023,4 hPa 0,0 mm 0,0 km/h (0 Bft) SW 225 0 min 0 UV-I 0 W/m 3,2 km/h (1 Bft)
11.04.2007 06:50 9,9 C 80 % 1023,4 hPa 0,0 mm 0,0 km/h (0 Bft) SW 225 0 min 0 UV-I 5 W/m 1,6 km/h (1 Bft)
11.04.2007 07:00 9,9 C 80 % 1023,4 hPa 0,0 mm 0,0 km/h (0 Bft) SW 225 0 min 0 UV-I 9 W/m 3,2 km/h (1 Bft)
11.04.2007 07:10 10,0 C 80 % 1023,7 hPa 0,0 mm 0,0 km/h (0 Bft) W 270 0 min 0 UV-I 12 W/m 4,8 km/h (1 Bft)
11.04.2007 07:20 10,0 C 81 % 1023,7 hPa 0,0 mm 0,0 km/h (0 Bft) W 270 0 min 0 UV-I 19 W/m 1,6 km/h (1 Bft)
11.04.2007 07:30 10,0 C 81 % 1023,8 hPa 0,0 mm 0,0 km/h (0 Bft) W 270 0 min 0 UV-I 25 W/m 1,6 km/h (1 Bft)
11.04.2007 07:40 10,1 C 80 % 1023,8 hPa 0,0 mm 0,0 km/h (0 Bft) W 270 0 min 0 UV-I 30 W/m 3,2 km/h (1 Bft)
11.04.2007 07:50 10,2 C 80 % 1023,9 hPa 0,0 mm 0,0 km/h (0 Bft) W 270 0 min 0 UV-I 39 W/m 1,6 km/h (1 Bft)
11.04.2007 08:00 10,3 C 80 % 1023,9 hPa 0,0 mm 0,0 km/h (0 Bft) W 270 0 min 0 UV-I 51 W/m 3,2 km/h (1 Bft)
11.04.2007 08:10 10,4 C 78 % 1023,9 hPa 0,0 mm 0,0 km/h (0 Bft) W 270 0 min 0 UV-I 69 W/m 1,6 km/h (1 Bft)
11.04.2007 08:20 10,6 C 78 % 1024,0 hPa 0,0 mm 0,0 km/h (0 Bft) W-SW 247 0 min 0 UV-I 76 W/m 3,2 km/h (1 Bft)
11.04.2007 08:30 10,7 C 77 % 1024,0 hPa 0,0 mm 0,0 km/h (0 Bft) S-SW 202 0 min 0 UV-I 72 W/m 3,2 km/h (1 Bft)
11.04.2007 08:40 10,8 C 76 % 1024,2 hPa 0,0 mm 0,0 km/h (0 Bft) SW 225 0 min 0 UV-I 74 W/m 3,2 km/h (1 Bft)
11.04.2007 08:50 10,9 C 76 % 1024,2 hPa 0,0 mm 0,0 km/h (0 Bft) SW 225 0 min 0 UV-I 90 W/m 1,6 km/h (1 Bft)
11.04.2007 09:00 11,1 C 75 % 1024,3 hPa 0,0 mm 0,0 km/h (0 Bft) SW 225 0 min 0 UV-I 93 W/m 3,2 km/h (1 Bft)
11.04.2007 09:10 11,2 C 75 % 1024,3 hPa 0,0 mm 0,0 km/h (0 Bft) SW 225 0 min 1 UV-I 109 W/m 1,6 km/h (1 Bft)
11.04.2007 09:20 11,3 C 74 % 1024,3 hPa 0,0 mm 1,6 km/h (1 Bft) SW 225 0 min 1 UV-I 127 W/m 4,8 km/h (1 Bft)
11.04.2007 09:30 11,4 C 74 % 1024,3 hPa 0,0 mm 0,0 km/h (0 Bft) W-SW 247 0 min 1 UV-I 127 W/m 4,8 km/h (1 Bft)
11.04.2007 09:40 11,7 C 73 % 1024,3 hPa 0,0 mm 0,0 km/h (0 Bft) SW 225 0 min 1 UV-I 162 W/m 4,8 km/h (1 Bft)
11.04.2007 09:50 11,8 C 72 % 1024,3 hPa 0,0 mm 0,0 km/h (0 Bft) S-SW 202 0 min 1 UV-I 158 W/m 3,2 km/h (1 Bft)
11.04.2007 10:00 12,1 C 70 % 1024,3 hPa 0,0 mm 1,6 km/h (1 Bft) SW 225 0 min 1 UV-I 165 W/m 4,8 km/h (1 Bft)
11.04.2007 10:10 12,2 C 72 % 1024,4 hPa 0,0 mm 1,6 km/h (1 Bft) W-SW 247 0 min 1 UV-I 156 W/m 6,4 km/h (2 Bft)
11.04.2007 10:20 12,3 C 70 % 1024,4 hPa 0,0 mm 1,6 km/h (1 Bft) SW 225 0 min 1 UV-I 202 W/m 6,4 km/h (2 Bft)
11.04.2007 10:30 12,6 C 69 % 1024,4 hPa 0,0 mm 1,6 km/h (1 Bft) SW 225 0 min 1 UV-I 207 W/m 6,4 km/h (2 Bft)
11.04.2007 10:40 12,7 C 70 % 1024,5 hPa 0,0 mm 1,6 km/h (1 Bft) W-SW 247 0 min 1 UV-I 216 W/m 6,4 km/h (2 Bft)
11.04.2007 10:50 12,8 C 68 % 1024,5 hPa 0,0 mm 1,6 km/h (1 Bft) W-SW 247 0 min 2 UV-I 237 W/m 6,4 km/h (2 Bft)
11.04.2007 11:00 13,0 C 67 % 1024,5 hPa 0,0 mm 1,6 km/h (1 Bft) W-SW 247 0 min 2 UV-I 297 W/m 8,0 km/h (2 Bft)
11.04.2007 11:10 13,3 C 66 % 1024,6 hPa 0,0 mm 1,6 km/h (1 Bft) W-SW 247 0 min 2 UV-I 316 W/m 6,4 km/h (2 Bft)
11.04.2007 11:20 13,4 C 67 % 1024,6 hPa 0,0 mm 3,2 km/h (1 Bft) SW 225 0 min 2 UV-I 325 W/m 8,0 km/h (2 Bft)
11.04.2007 11:30 13,6 C 65 % 1024,6 hPa 0,0 mm 3,2 km/h (1 Bft) W-SW 247 0 min 2 UV-I 311 W/m 8,0 km/h (2 Bft)
11.04.2007 11:40 13,7 C 64 % 1024,7 hPa 0,0 mm 1,6 km/h (1 Bft) W-SW 247 0 min 2 UV-I 306 W/m 8,0 km/h (2 Bft)
11.04.2007 11:50 13,8 C 63 % 1024,7 hPa 0,0 mm 1,6 km/h (1 Bft) W-SW 247 0 min 2 UV-I 309 W/m 4,8 km/h (1 Bft)
11.04.2007 12:00 14,1 C 60 % 1024,7 hPa 0,0 mm 1,6 km/h (1 Bft) SW 225 0 min 2 UV-I 292 W/m 8,0 km/h (2 Bft)
11.04.2007 12:10 14,0 C 61 % 1024,7 hPa 0,0 mm 1,6 km/h (1 Bft) W-SW 247 0 min 2 UV-I 271 W/m 6,4 km/h (2 Bft)
11.04.2007 12:20 13,9 C 60 % 1024,6 hPa 0,0 mm 1,6 km/h (1 Bft) W 270 0 min 2 UV-I 199 W/m 6,4 km/h (2 Bft)
11.04.2007 12:30 14,0 C 61 % 1024,5 hPa 0,0 mm 1,6 km/h (1 Bft) W 270 0 min 2 UV-I 234 W/m 6,4 km/h (2 Bft)
11.04.2007 12:40 14,1 C 60 % 1024,4 hPa 0,0 mm 1,6 km/h (1 Bft) W-SW 247 0 min 2 UV-I 237 W/m 6,4 km/h (2 Bft)
11.04.2007 12:50 14,2 C 59 % 1024,4 hPa 0,0 mm 1,6 km/h (1 Bft) W-SW 247 0 min 2 UV-I 297 W/m 8,0 km/h (2 Bft)
11.04.2007 13:00 14,4 C 58 % 1024,4 hPa 0,0 mm 1,6 km/h (1 Bft) W-NW 292 0 min 2 UV-I 297 W/m 8,0 km/h (2 Bft)
11.04.2007 13:10 14,4 C 59 % 1024,4 hPa 0,0 mm 3,2 km/h (1 Bft) W-SW 247 0 min 2 UV-I 230 W/m 8,0 km/h (2 Bft)
11.04.2007 13:20 14,4 C 60 % 1024,4 hPa 0,0 mm 1,6 km/h (1 Bft) SW 225 0 min 2 UV-I 255 W/m 6,4 km/h (2 Bft)
11.04.2007 13:30 14,4 C 61 % 1024,4 hPa 0,0 mm 1,6 km/h (1 Bft) W-SW 247 0 min 2 UV-I 204 W/m 6,4 km/h (2 Bft)
11.04.2007 13:40 14,4 C 61 % 1024,4 hPa 0,0 mm 1,6 km/h (1 Bft) W 270 0 min 2 UV-I 199 W/m 6,4 km/h (2 Bft)
11.04.2007 13:50 14,4 C 61 % 1024,3 hPa 0,0 mm 1,6 km/h (1 Bft) S-SW 202 0 min 2 UV-I 237 W/m 6,4 km/h (2 Bft)
11.04.2007 14:00 14,7 C 58 % 1024,3 hPa 0,0 mm 1,6 km/h (1 Bft) W-SW 247 0 min 2 UV-I 292 W/m 6,4 km/h (2 Bft)
11.04.2007 14:10 14,8 C 57 % 1024,3 hPa 0,0 mm 1,6 km/h (1 Bft) W-SW 247 0 min 2 UV-I 302 W/m 6,4 km/h (2 Bft)
11.04.2007 14:20 14,8 C 59 % 1024,2 hPa 0,0 mm 1,6 km/h (1 Bft) W-NW 292 0 min 2 UV-I 316 W/m 4,8 km/h (1 Bft)
11.04.2007 14:30 14,9 C 57 % 1024,2 hPa 0,0 mm 1,6 km/h (1 Bft) W-SW 247 0 min 2 UV-I 318 W/m 8,0 km/h (2 Bft)
11.04.2007 14:40 15,0 C 56 % 1024,2 hPa 0,0 mm 1,6 km/h (1 Bft) W 270 0 min 2 UV-I 323 W/m 8,0 km/h (2 Bft)
11.04.2007 14:50 15,1 C 57 % 1024,1 hPa 0,0 mm 1,6 km/h (1 Bft) SW 225 0 min 2 UV-I 313 W/m 8,0 km/h (2 Bft)
11.04.2007 15:00 15,0 C 57 % 1024,0 hPa 0,0 mm 1,6 km/h (1 Bft) W 270 0 min 2 UV-I 288 W/m 8,0 km/h (2 Bft)
11.04.2007 15:10 15,1 C 58 % 1024,0 hPa 0,0 mm 1,6 km/h (1 Bft) W 270 0 min 2 UV-I 283 W/m 6,4 km/h (2 Bft)
11.04.2007 15:20 15,1 C 58 % 1024,0 hPa 0,0 mm 1,6 km/h (1 Bft) W-SW 247 0 min 2 UV-I 257 W/m 4,8 km/h (1 Bft)
11.04.2007 15:30 15,0 C 57 % 1023,8 hPa 0,0 mm 1,6 km/h (1 Bft) W-NW 292 0 min 2 UV-I 267 W/m 6,4 km/h (2 Bft)
11.04.2007 15:40 15,1 C 57 % 1023,8 hPa 0,0 mm 1,6 km/h (1 Bft) W-SW 247 0 min 2 UV-I 239 W/m 4,8 km/h (1 Bft)
11.04.2007 15:50 15,1 C 56 % 1023,8 hPa 0,0 mm 1,6 km/h (1 Bft) W-NW 292 0 min 2 UV-I 241 W/m 6,4 km/h (2 Bft)
11.04.2007 16:00 15,3 C 55 % 1023,8 hPa 0,0 mm 1,6 km/h (1 Bft) W-SW 247 0 min 2 UV-I 241 W/m 4,8 km/h (1 Bft)
11.04.2007 16:10 15,4 C 55 % 1023,7 hPa 0,0 mm 1,6 km/h (1 Bft) W-SW 247 0 min 2 UV-I 244 W/m 4,8 km/h (1 Bft)
11.04.2007 16:20 15,4 C 56 % 1023,6 hPa 0,0 mm 1,6 km/h (1 Bft) NW 315 0 min 1 UV-I 234 W/m 6,4 km/h (2 Bft)
11.04.2007 16:30 15,4 C 56 % 1023,6 hPa 0,0 mm 1,6 km/h (1 Bft) W-NW 292 0 min 1 UV-I 214 W/m 4,8 km/h (1 Bft)
11.04.2007 16:40 15,3 C 57 % 1023,6 hPa 0,0 mm 1,6 km/h (1 Bft) W-SW 247 0 min 1 UV-I 188 W/m 4,8 km/h (1 Bft)
11.04.2007 16:50 15,2 C 57 % 1023,6 hPa 0,0 mm 1,6 km/h (1 Bft) SW 225 0 min 1 UV-I 165 W/m 4,8 km/h (1 Bft)
11.04.2007 17:00 15,2 C 56 % 1023,5 hPa 0,0 mm 1,6 km/h (1 Bft) W 270 0 min 1 UV-I 178 W/m 6,4 km/h (2 Bft)
11.04.2007 17:10 15,3 C 56 % 1023,5 hPa 0,0 mm 1,6 km/h (1 Bft) W-SW 247 0 min 1 UV-I 220 W/m 6,4 km/h (2 Bft)
11.04.2007 17:20 15,3 C 55 % 1023,5 hPa 0,0 mm 0,0 km/h (0 Bft) W 270 0 min 1 UV-I 206 W/m 3,2 km/h (1 Bft)
11.04.2007 17:30 15,3 C 55 % 1023,5 hPa 0,0 mm 0,0 km/h (0 Bft) NW 315 0 min 1 UV-I 174 W/m 1,6 km/h (1 Bft)
11.04.2007 17:40 15,3 C 56 % 1023,5 hPa 0,0 mm 1,6 km/h (1 Bft) W-SW 247 0 min 1 UV-I 146 W/m 4,8 km/h (1 Bft)
11.04.2007 17:50 15,2 C 57 % 1023,5 hPa 0,0 mm 1,6 km/h (1 Bft) W 270 0 min 1 UV-I 118 W/m 4,8 km/h (1 Bft)
11.04.2007 18:00 15,1 C 56 % 1023,5 hPa 0,0 mm 0,0 km/h (0 Bft) W-NW 292 0 min 0 UV-I 104 W/m 3,2 km/h (1 Bft)
11.04.2007 18:10 15,1 C 56 % 1023,4 hPa 0,0 mm 0,0 km/h (0 Bft) W 270 0 min 0 UV-I 104 W/m 4,8 km/h (1 Bft)
11.04.2007 18:20 15,1 C 57 % 1023,4 hPa 0,0 mm 0,0 km/h (0 Bft) W 270 0 min 0 UV-I 97 W/m 3,2 km/h (1 Bft)
11.04.2007 18:30 15,0 C 54 % 1023,4 hPa 0,0 mm 0,0 km/h (0 Bft) W 270 0 min 0 UV-I 86 W/m 3,2 km/h (1 Bft)
11.04.2007 18:40 15,0 C 54 % 1023,4 hPa 0,0 mm 0,0 km/h (0 Bft) W-SW 247 0 min 0 UV-I 74 W/m 4,8 km/h (1 Bft)
11.04.2007 18:50 14,9 C 54 % 1023,3 hPa 0,0 mm 0,0 km/h (0 Bft) W-SW 247 0 min 0 UV-I 69 W/m 3,2 km/h (1 Bft)
11.04.2007 19:00 14,9 C 55 % 1023,3 hPa 0,0 mm 0,0 km/h (0 Bft) W-SW 247 0 min 0 UV-I 62 W/m 3,2 km/h (1 Bft)
11.04.2007 19:10 14,8 C 56 % 1023,2 hPa 0,0 mm 0,0 km/h (0 Bft) N 0 0 min 0 UV-I 54 W/m 0,0 km/h (0 Bft)
11.04.2007 19:20 14,8 C 55 % 1023,2 hPa 0,0 mm 1,6 km/h (1 Bft) W-NW 292 0 min 0 UV-I 53 W/m 4,8 km/h (1 Bft)
11.04.2007 19:30 14,7 C 58 % 1023,1 hPa 0,0 mm 0,0 km/h (0 Bft) W-NW 292 0 min 0 UV-I 40 W/m 1,6 km/h (1 Bft)
11.04.2007 19:40 14,5 C 58 % 1023,1 hPa 0,0 mm 0,0 km/h (0 Bft) N 0 0 min 0 UV-I 32 W/m 0,0 km/h (0 Bft)
11.04.2007 19:50 14,2 C 60 % 1023,0 hPa 0,0 mm 0,0 km/h (0 Bft) N 0 0 min 0 UV-I 26 W/m 0,0 km/h (0 Bft)
11.04.2007 20:00 13,6 C 62 % 1023,1 hPa 0,0 mm 0,0 km/h (0 Bft) N 0 10 min 0 UV-I 18 W/m 0,0 km/h (0 Bft)
11.04.2007 20:10 13,1 C 66 % 1023,1 hPa 0,0 mm 0,0 km/h (0 Bft) N 0 0 min 0 UV-I 0 W/m 0,0 km/h (0 Bft)
11.04.2007 20:20 12,5 C 67 % 1023,2 hPa 0,0 mm 0,0 km/h (0 Bft) N 0 0 min 0 UV-I 0 W/m 0,0 km/h (0 Bft)
11.04.2007 20:30 12,1 C 69 % 1023,2 hPa 0,0 mm 0,0 km/h (0 Bft) N 0 0 min 0 UV-I 0 W/m 0,0 km/h (0 Bft)
11.04.2007 20:40 11,7 C 71 % 1023,2 hPa 0,0 mm 0,0 km/h (0 Bft) N 0 0 min 0 UV-I 0 W/m 0,0 km/h (0 Bft)
11.04.2007 20:50 11,2 C 72 % 1023,3 hPa 0,0 mm 0,0 km/h (0 Bft) N 0 0 min 0 UV-I 0 W/m 0,0 km/h (0 Bft)
11.04.2007 21:00 10,8 C 74 % 1023,4 hPa 0,0 mm 0,0 km/h (0 Bft) N 0 0 min 0 UV-I 0 W/m 0,0 km/h (0 Bft)
11.04.2007 21:10 10,7 C 74 % 1023,4 hPa 0,0 mm 0,0 km/h (0 Bft) N 0 0 min 0 UV-I 0 W/m 0,0 km/h (0 Bft)
11.04.2007 21:40 10,2 C 76 % 1023,5 hPa 0,0 mm 0,0 km/h (0 Bft) W-NW 284 0 min 0 UV-I 0 W/m 0,0 km/h (0 Bft)
11.04.2007 21:50 9,8 C 78 % 1023,8 hPa 0,0 mm 0,0 km/h (0 Bft) N 0 0 min 0 UV-I 0 W/m 0,0 km/h (0 Bft)
11.04.2007 22:00 9,4 C 79 % 1023,8 hPa 0,0 mm 0,0 km/h (0 Bft) N 0 0 min 0 UV-I 0 W/m 0,0 km/h (0 Bft)
11.04.2007 22:10 9,1 C 80 % 1023,8 hPa 0,0 mm 0,0 km/h (0 Bft) N 0 0 min 0 UV-I 0 W/m 0,0 km/h (0 Bft)
11.04.2007 22:20 9,1 C 80 % 1023,8 hPa 0,0 mm 0,0 km/h (0 Bft) N 0 0 min 0 UV-I 0 W/m 0,0 km/h (0 Bft)
11.04.2007 22:30 8,9 C 80 % 1023,8 hPa 0,0 mm 0,0 km/h (0 Bft) N 0 0 min 0 UV-I 0 W/m 0,0 km/h (0 Bft)
11.04.2007 22:40 8,7 C 81 % 1023,8 hPa 0,0 mm 0,0 km/h (0 Bft) N 0 0 min 0 UV-I 0 W/m 0,0 km/h (0 Bft)
11.04.2007 22:50 8,6 C 81 % 1023,9 hPa 0,0 mm 0,0 km/h (0 Bft) N 0 0 min 0 UV-I 0 W/m 0,0 km/h (0 Bft)
11.04.2007 23:00 8,6 C 81 % 1023,9 hPa 0,0 mm 0,0 km/h (0 Bft) N 0 0 min 0 UV-I 0 W/m 0,0 km/h (0 Bft)
11.04.2007 23:10 8,4 C 81 % 1023,9 hPa 0,0 mm 0,0 km/h (0 Bft) N 0 0 min 0 UV-I 0 W/m 0,0 km/h (0 Bft)
11.04.2007 23:20 8,3 C 82 % 1023,9 hPa 0,0 mm 0,0 km/h (0 Bft) N 0 0 min 0 UV-I 0 W/m 0,0 km/h (0 Bft)
11.04.2007 23:30 8,0 C 83 % 1023,9 hPa 0,0 mm 0,0 km/h (0 Bft) N 0 0 min 0 UV-I 0 W/m 0,0 km/h (0 Bft)
11.04.2007 23:40 7,9 C 84 % 1023,9 hPa 0,0 mm 0,0 km/h (0 Bft) N 0 0 min 0 UV-I 0 W/m 0,0 km/h (0 Bft)
11.04.2007 23:50 7,8 C 84 % 1024,0 hPa 0,0 mm 0,0 km/h (0 Bft) N 0 0 min 0 UV-I 0 W/m 0,0 km/h (0 Bft)
_ Min-Zeit 23:50 18:30 00:00 - 00:00 - - - - - 00:00
Minimum _ 7,7 C 54 % 1022,8 hPa - 0,0 km/h (0 Bft) - - - - - 0,0 km/h (0 Bft)
_ Max-Zeit 16:00 23:40 11:40 00:00 11:20 - - 20:00 10:50 11:20 11:00
Maximum _ 15,4 C 84 % 1024,7 hPa 0,0 mm 3,2 km/h
SW (1 Bft)
- - 10 min 2 UV-I 325 W/m 8,0 km/h
N (2 Bft)
Durchschnitt _ 12,1 C 70 % 1023,7 hPa #0,0 mm 0,6 km/h (0 Bft) W-SW - #10 min. 2 UV-I 174 W/m 3,3 km/h (1 Bft)